TimeCST,TemperatureF,Dew PointF,Humidity,Sea Level PressureIn,VisibilityMPH,Wind Direction,Wind SpeedMPH,Gust SpeedMPH,PrecipitationIn,Events,Conditions,WindDirDegrees,DateUTC
12:15 AM,26.1,16.0,66,30.26,10.0,NNW,17.3,-,N/A,,Overcast,340,2013-02-15 06:15:00
12:35 AM,24.8,17.4,74,30.26,10.0,NNW,19.6,-,N/A,,Overcast,340,2013-02-15 06:35:00
12:55 AM,23.5,16.7,75,30.28,10.0,NNW,12.7,-,N/A,,Scattered Clouds,340,2013-02-15 06:55:00
1:15 AM,22.1,15.6,76,30.28,10.0,NNW,16.1,-,N/A,,Clear,340,2013-02-15 07:15:00
1:55 AM,20.5,13.5,74,30.29,10.0,NNW,12.7,-,N/A,,Clear,330,2013-02-15 07:55:00
2:15 AM,19.9,12.6,73,30.30,10.0,NNW,11.5,-,N/A,,Clear,330,2013-02-15 08:15:00
2:35 AM,18.5,11.8,75,30.31,10.0,NW,9.2,-,N/A,,Clear,320,2013-02-15 08:35:00
2:55 AM,18.0,10.8,73,30.32,10.0,Calm,Calm,-,N/A,,Clear,0,2013-02-15 08:55:00
3:15 AM,16.2,11.3,81,30.33,10.0,Calm,Calm,-,N/A,,Clear,0,2013-02-15 09:15:00
3:35 AM,15.3,10.4,81,30.32,10.0,Calm,Calm,-,N/A,,Clear,0,2013-02-15 09:35:00
3:55 AM,14.9,10.4,82,30.31,10.0,NW,9.2,-,N/A,,Clear,320,2013-02-15 09:55:00
4:15 AM,15.4,10.9,82,30.32,10.0,Calm,Calm,-,N/A,,Clear,0,2013-02-15 10:15:00
4:35 AM,14.9,10.8,84,30.32,10.0,Calm,Calm,-,N/A,,Clear,0,2013-02-15 10:35:00
4:55 AM,14.7,10.4,83,30.32,10.0,Calm,Calm,-,N/A,,Clear,0,2013-02-15 10:55:00
5:15 AM,14.9,10.9,84,30.33,10.0,Calm,Calm,-,N/A,,Clear,0,2013-02-15 11:15:00
5:35 AM,15.1,11.1,84,30.33,10.0,NW,4.6,-,N/A,,Clear,320,2013-02-15 11:35:00
5:55 AM,14.0,10.2,85,30.34,10.0,Calm,Calm,-,N/A,,Clear,0,2013-02-15 11:55:00
6:15 AM,14.0,10.0,84,30.34,10.0,Calm,Calm,-,N/A,,Clear,0,2013-02-15 12:15:00
6:35 AM,14.0,9.5,82,30.35,10.0,Calm,Calm,-,N/A,,Clear,0,2013-02-15 12:35:00
6:55 AM,14.2,9.5,82,30.35,10.0,Calm,Calm,-,N/A,,Clear,0,2013-02-15 12:55:00
7:15 AM,14.5,9.5,80,30.35,10.0,Calm,Calm,-,N/A,,Clear,0,2013-02-15 13:15:00
7:35 AM,15.1,10.2,81,30.36,10.0,WNW,4.6,-,N/A,,Clear,300,2013-02-15 13:35:00
7:55 AM,16.0,10.4,79,30.36,10.0,Calm,Calm,-,N/A,,Clear,0,2013-02-15 13:55:00
8:15 AM,18.3,12.0,76,30.36,10.0,Calm,Calm,-,N/A,,Mostly Cloudy,0,2013-02-15 14:15:00
8:35 AM,19.0,12.2,75,30.36,10.0,Calm,Calm,-,N/A,,Overcast,0,2013-02-15 14:35:00
8:55 AM,20.3,13.5,75,30.37,10.0,Calm,Calm,-,N/A,,Overcast,0,2013-02-15 14:55:00
9:15 AM,21.2,13.8,73,30.37,10.0,WNW,10.4,-,N/A,,Overcast,290,2013-02-15 15:15:00
9:35 AM,22.1,14.0,71,30.37,10.0,WNW,9.2,-,N/A,,Overcast,300,2013-02-15 15:35:00
9:55 AM,23.4,14.2,68,30.36,10.0,Calm,Calm,-,N/A,,Scattered Clouds,0,2013-02-15 15:55:00
10:15 AM,25.0,15.3,67,30.36,10.0,Calm,Calm,-,N/A,,Clear,0,2013-02-15 16:15:00
10:35 AM,26.2,17.4,69,30.36,10.0,WNW,10.4,-,N/A,,Clear,290,2013-02-15 16:35:00
10:55 AM,28.0,18.3,67,30.36,10.0,NW,8.1,-,N/A,,Clear,320,2013-02-15 16:55:00
11:15 AM,28.4,18.1,65,30.36,10.0,NW,10.4,-,N/A,,Clear,310,2013-02-15 17:15:00
11:55 AM,30.0,16.0,56,30.34,10.0,NNW,11.5,-,N/A,,Clear,330,2013-02-15 17:55:00
12:15 PM,30.6,16.5,56,30.34,10.0,NNW,12.7,-,N/A,,Clear,330,2013-02-15 18:15:00
12:35 PM,31.3,16.9,55,30.33,10.0,NNW,13.8,-,N/A,,Clear,330,2013-02-15 18:35:00
12:55 PM,31.5,16.9,55,30.33,10.0,NNW,6.9,16.1,N/A,,Scattered Clouds,330,2013-02-15 18:55:00
1:15 PM,30.9,15.3,52,30.32,10.0,Calm,Calm,-,N/A,,Mostly Cloudy,0,2013-02-15 19:15:00
1:35 PM,30.7,13.6,49,30.31,10.0,NNW,10.4,-,N/A,,Overcast,340,2013-02-15 19:35:00
1:55 PM,31.1,13.5,48,30.31,10.0,NNW,10.4,-,N/A,,Overcast,330,2013-02-15 19:55:00
2:15 PM,31.5,14.2,49,30.30,10.0,Calm,Calm,-,N/A,,Overcast,0,2013-02-15 20:15:00
2:35 PM,33.3,14.7,47,30.30,10.0,NW,9.2,-,N/A,,Overcast,320,2013-02-15 20:35:00
2:55 PM,32.2,13.6,46,30.30,10.0,Calm,Calm,-,N/A,,Overcast,0,2013-02-15 20:55:00
3:15 PM,33.4,14.7,46,30.29,10.0,Calm,Calm,-,N/A,,Overcast,0,2013-02-15 21:15:00
3:35 PM,32.5,13.6,46,30.28,10.0,Calm,Calm,-,N/A,,Overcast,0,2013-02-15 21:35:00
3:55 PM,32.2,14.2,48,30.28,10.0,Calm,Calm,-,N/A,,Overcast,0,2013-02-15 21:55:00
4:15 PM,32.0,14.0,48,30.28,10.0,Calm,Calm,-,N/A,,Overcast,0,2013-02-15 22:15:00
4:35 PM,32.4,15.6,50,30.28,10.0,Calm,Calm,-,N/A,,Overcast,0,2013-02-15 22:35:00
4:55 PM,32.0,14.4,48,30.28,10.0,Calm,Calm,-,N/A,,Overcast,0,2013-02-15 22:55:00
5:15 PM,32.0,15.1,50,30.28,10.0,Calm,Calm,-,N/A,,Overcast,0,2013-02-15 23:15:00
5:35 PM,31.1,16.3,54,30.28,10.0,Calm,Calm,-,N/A,,Overcast,0,2013-02-15 23:35:00
5:55 PM,29.3,21.9,74,30.28,3.0,NNE,8.1,-,N/A,Snow,Light Snow,20,2013-02-15 23:55:00
6:15 PM,28.4,23.4,81,30.29,7.0,Calm,Calm,-,N/A,,Overcast,0,2013-02-16 00:15:00
6:35 PM,27.9,24.1,86,30.29,4.0,Calm,Calm,-,N/A,Snow,Light Snow,0,2013-02-16 00:35:00
6:55 PM,27.3,26.1,95,30.30,2.0,Calm,Calm,-,N/A,Snow,Light Snow,0,2013-02-16 00:55:00
7:15 PM,27.1,26.4,97,30.30,1.0,Calm,Calm,-,N/A,Snow,Light Snow,0,2013-02-16 01:15:00
7:35 PM,26.6,26.1,98,30.30,2.0,Calm,Calm,-,N/A,Snow,Light Snow,0,2013-02-16 01:35:00
7:55 PM,26.4,26.1,99,30.30,5.0,Calm,Calm,-,N/A,Snow,Light Snow,0,2013-02-16 01:55:00
8:15 PM,26.6,26.2,99,30.31,5.0,Calm,Calm,-,N/A,Snow,Light Snow,0,2013-02-16 02:15:00
8:35 PM,26.6,26.2,99,30.31,4.0,Calm,Calm,-,N/A,Snow,Light Snow,0,2013-02-16 02:35:00
8:55 PM,26.4,26.1,99,30.31,5.0,Calm,Calm,-,N/A,Snow,Light Snow,0,2013-02-16 02:55:00
9:15 PM,26.2,25.0,95,30.32,7.0,Calm,Calm,-,N/A,Snow,Light Snow,0,2013-02-16 03:15:00
9:35 PM,25.7,24.8,96,30.32,3.0,Calm,Calm,-,N/A,Snow,Light Snow,0,2013-02-16 03:35:00
9:55 PM,25.5,24.6,96,30.32,4.0,Calm,Calm,-,N/A,Snow,Light Snow,0,2013-02-16 03:55:00
10:15 PM,25.7,24.8,96,30.32,4.0,Calm,Calm,-,N/A,Snow,Light Snow,0,2013-02-16 04:15:00
10:35 PM,25.5,24.4,96,30.33,4.0,Calm,Calm,-,N/A,Snow,Light Snow,0,2013-02-16 04:35:00
10:55 PM,23.9,21.7,91,30.33,10.0,Calm,Calm,-,N/A,,Overcast,0,2013-02-16 04:55:00
11:15 PM,22.1,21.2,96,30.33,10.0,Calm,Calm,-,N/A,,Overcast,0,2013-02-16 05:15:00
11:35 PM,23.5,22.1,94,30.33,10.0,Calm,Calm,-,N/A,,Overcast,0,2013-02-16 05:35:00
11:55 PM,24.3,22.3,92,30.33,10.0,Calm,Calm,-,N/A,,Overcast,0,2013-02-16 05:55:00